STARLINK-33843, 63507

Orbit data source: Space-Track

STARLINK-33843, 63507 is a payload satellite owned by SpaceX/Seattle (US) in LEO that was launched on Mon, 07 Apr 2025 UTC via an FALCON 9 launch vehicle from the Air Force Western Test Range (AFWTR). Payload-class satellites include a variety of spacecraft equipped with specific instruments for various scientific and technological missions. These include communications satellites like Starlink; space stations such as the ISS; scientific satellites like the Hubble; Earth observation satellites from companies like Planet Labs, Umbra, and HawkEye 360; GPS; miniature CubeSats for education and research; and military/defense satellites.

Loading next visibility...
Identifier
63507, 2025-071Q
Orbit
LEO
Country
Flag of USUS
Related business
Manufacturer
SpaceX/Seattle
Mission
Operational Commercial Communications
Bus & Motor
STARLINK V2MO, Unknown motor
Mass
575 kg wet, ~530 kg dry
Launch date (UTC)
2025-04-07 (7 months ago)
Launch vehicle
FALCON 9
Launch site
Air Force Western Test Range (AFWTR)
Object type
Payload
Rocket body
Debris
Shape & HBR
Box + 2 Pan, 17.7 m
Radar Cross Section
36.964 m², Large (>1 m²)

Expand to show TLE details & history
Last TLE update: 20 hours ago

TLE from 20 hours ago
0 STARLINK-33843
1 63507U 25071Q   25306.48142259  .00027627  00000-0  94100-3 0  9998
2 63507  53.1601  10.7658 0001204  87.2647 272.8491 15.30214767 33271
Epoch: 2025-11-02T11:33Z
TLE epoch observation values (Epoch: 2025-11-02T11:33:14.911Z)
Latitude
-0.00008°
Longitude
155.45708°
Altitude
476.03 km
Speed
7.629 km/s
True Right ascension
00h 43m 03s
True Declination
0° 00' 00"
Sunlit
Object was in full shadow at epoch
Visualization orbit readout
Latitude
Unknown
Longitude
Unknown
Altitude
Unknown
Speed
Unknown
Apparent Right ascension
Unknown
Apparent Declination
Unknown
Sunlit
N/A
Visualization observer readout
Local Sidereal Time
03:34:49
Azimuth
Unknown
Elevation
Unknown
Doppler factor
Unknown
Orbital elements
Apogee altitude
476.253 km
Perigee altitude
474.602 km
Semi-major axis
6,853.564 km
Eccentricity
0.00012
Inclination
53.1601°
RAAN
10.7658°
Arg. of periapsis
87.2647°
True anomaly
272.83532°
Mean anomaly
272.8491°
Eccentric anomaly
272.84221°
Mean motion
3.82533 °/min
Orbital period
94.11 mins
BSTAR
0.000941
Loading maneuver chart data...
Computing Atmospheric mass density...
Loading historical data...
Loading historical data...
Loading historical data...
Loading historical data...
Loading historical data...
Loading historical data...
Loading historical data...

Documentation

Showing up to 5 results
|